Showing default

GLOBALSTAR M023, 25621

Orbit data source: Space-Track

GLOBALSTAR M023, 25621 is a payload satellite owned by Globalstar (US) in LEO that was launched on Tue, 09 Feb 1999 UTC via a SOYUZ-U-PVB launch vehicle from the Tyuratam Missile And Space Complex (TTMTR). Payload-class satellites include a variety of spacecraft equipped with specific instruments for various scientific and technological missions. These include communications satellites like Starlink; space stations such as the ISS; scientific satellites like the Hubble; Earth observation satellites from companies like Planet Labs, Umbra, and HawkEye 360; GPS; miniature CubeSats for education and research; and military/defense satellites.

Loading next visibility...
Identifier
25621, 1999-004A
Orbit
LEO
Country
Flag of UnknownUnknown / GLOB
Related business
Manufacturer
SS/Loral
Mission
Non-operational Commercial Communications
Bus & Motor
LS-400, LS-400 AOCS
Mass
450 kg wet, 380 kg dry
Launch date (UTC)
1999-02-09 (27 years ago)
Launch vehicle
SOYUZ-U-PVB
Launch site
Tyuratam Missile And Space Complex (TTMTR)
Object type
Payload
Rocket body
Debris
Shape & HBR
Box + 2 Pan, 6.0 m
Radar Cross Section
5.587 m², Large (>1 m²)

Expand to show TLE details & history
Last TLE update: 10 hours ago

TLE from 10 hours ago
0 GLOBALSTAR M023
1 25621U 99004A   25305.57650998 -.00000112  00000-0 -42218-4 0  9999
2 25621  52.0131 355.0854 0010354  71.7996  80.0114 12.62507294233080
Epoch: 2025-11-01T13:50Z
TLE epoch observation values (Epoch: 2025-11-01T13:50:10.462Z)
Latitude
21.81898°
Longitude
-91.68835°
Altitude
1,411.688 km
Speed
7.158 km/s
True Right ascension
10h 27m 50s
True Declination
21° 42' 38"
Sunlit
Object was in daylight at epoch
Visualization orbit readout
Latitude
Unknown
Longitude
Unknown
Altitude
Unknown
Speed
Unknown
Apparent Right ascension
Unknown
Apparent Declination
Unknown
Sunlit
N/A
Visualization observer readout
Local Sidereal Time
20:04:36
Azimuth
Unknown
Elevation
Unknown
Doppler factor
Unknown
Orbital elements
Apogee altitude
1,421.07 km
Perigee altitude
1,404.936 km
Semi-major axis
7,791.14 km
Eccentricity
0.00104
Inclination
52.0131°
RAAN
355.0854°
Arg. of periapsis
71.7996°
True anomaly
80.12828°
Mean anomaly
80.0114°
Eccentric anomaly
80.06984°
Mean motion
3.15603 °/min
Orbital period
114.07 mins
BSTAR
-0.000042218
Loading maneuver chart data...
Computing Atmospheric mass density...
Loading historical data...
Loading historical data...
Loading historical data...
Loading historical data...
Loading historical data...
Loading historical data...
Loading historical data...
Other satellites on launch #4 in the year 1999 (1999-02-09 UTC)

Documentation

Showing up to 5 results
|